Weather History for Teterboro, NJ

Change the Weather History Date:

Sunday, January 6, 2013

  Actual Average Record
Temperature  
Mean Temperature 40 °F -  
Max Temperature 46 °F 38 °F 72 °F (2007)
Min Temperature 33 °F 25 °F 10 °F (1999)
Degree Days  
Heating Degree Days 26    
Moisture  
Dew Point 28 °F    
Average Humidity 65    
Maximum Humidity 92    
Minimum Humidity 43    
Precipitation  
Precipitation 0.00 in - - ()
Sea Level Pressure  
Sea Level Pressure 30.07 in    
Wind  
Wind Speed 6 mph (SW)    
Max Wind Speed 13 mph    
Max Gust Speed -    
Visibility 9 miles    
Events Snow    
Averages and records for this station are not official NWS values.
T = Trace of Precipitation, MM = Missing Value Source: NWS Daily Summary

Daily Weather History Graph

Daily Weather History Graph

Search for Another Location

Airport:

Trip Planner

Search our weather history database for the weather conditions in past years. The results will help you decide how hot, cold, wet, or windy it might be!

Date:

Astronomy

Jan. 06, 2013 Rise Set
Actual Time 7:20 AM EST 4:43 PM EST
Civil Twilight 6:50 AM EST 5:14 PM EST
Nautical Twilight 6:15 AM EST 5:48 PM EST
Astronomical Twilight 5:42 AM EST 6:22 PM EST
Moon 1:31 AM EST (1/6) 12:10 PM EST (1/6)
Length of Visible Light 10h 24m
Length of Day
9h 23m
Waning Crescent, 33% of the Moon is Illuminated
Jan 6
Waning Crescent
Jan 11
New
Jan 18
First Quarter
Jan 26
Full
Feb 3
Last Quarter

Hourly Weather History & Observations

Time (EST) Temp. Windchill Dew Point Humidity Pressure Visibility Wind Dir Wind Speed Gust Speed Precip Events Conditions
12:51 AM 33.1 °F 30.0 °F 25.0 °F 72% 30.21 in 10.0 mi SSW 3.5 mph - N/A   Scattered Clouds
1:51 AM 33.1 °F - 25.0 °F 72% 30.21 in 10.0 mi Calm Calm - N/A   Overcast
2:51 AM 33.1 °F 27.7 °F 24.1 °F 70% 30.19 in 10.0 mi SSW 5.8 mph - N/A   Overcast
3:51 AM 33.1 °F - 24.1 °F 70% 30.16 in 10.0 mi Calm Calm - N/A   Overcast
4:51 AM 34.0 °F 27.2 °F 25.0 °F 70% 30.13 in 7.0 mi South 8.1 mph - 0.00 in Snow Light Snow
5:51 AM 33.1 °F 26.1 °F 28.9 °F 85% 30.12 in 7.0 mi South 8.1 mph - 0.00 in   Overcast
6:51 AM 34.0 °F 27.2 °F 30.0 °F 85% 30.12 in 8.0 mi SSW 8.1 mph - N/A   Overcast
7:51 AM 34.0 °F 26.6 °F 32.0 °F 92% 30.12 in 7.0 mi WSW 9.2 mph - N/A   Overcast
8:51 AM 35.1 °F 30.1 °F 32.0 °F 89% 30.11 in 5.0 mi South 5.8 mph - N/A   Overcast
9:51 AM 37.0 °F 31.6 °F 32.0 °F 82% 30.11 in 6.0 mi SW 6.9 mph - N/A   Overcast
10:10 AM 37.4 °F 32.1 °F 32.0 °F 81% 30.10 in 6.0 mi WSW 6.9 mph - N/A   Mostly Cloudy
10:51 AM 39.0 °F 33.4 °F 30.9 °F 73% 30.07 in 6.0 mi SW 8.1 mph - N/A   Haze
11:51 AM 43.0 °F 38.8 °F 30.9 °F 62% 30.03 in 6.0 mi SW 6.9 mph - N/A   Haze
12:51 PM 44.1 °F 40.1 °F 28.9 °F 55% 30.00 in 10.0 mi WSW 6.9 mph - N/A   Haze
1:51 PM 46.0 °F 43.9 °F 28.0 °F 50% 29.98 in 10.0 mi Variable 4.6 mph - N/A   Clear
2:51 PM 46.9 °F - 27.0 °F 46% 29.96 in 10.0 mi WSW 12.7 mph - N/A   Clear
3:51 PM 46.4 °F 41.5 °F 24.8 °F 43% 29.96 in 10.0 mi West 10.4 mph - N/A   Clear
4:51 PM 45.0 °F 40.6 °F 24.1 °F 44% 29.98 in 10.0 mi WSW 8.1 mph - N/A   Partly Cloudy
5:51 PM 42.8 °F 37.5 °F 24.8 °F 49% 29.99 in 10.0 mi West 9.2 mph - N/A   Scattered Clouds
6:51 PM 43.0 °F 37.7 °F 25.0 °F 49% 30.01 in 10.0 mi WSW 9.2 mph - N/A   Overcast
7:51 PM 42.1 °F 37.1 °F 26.1 °F 53% 30.01 in 10.0 mi WSW 8.1 mph - N/A   Overcast
8:51 PM 42.1 °F 37.1 °F 26.1 °F 53% 30.01 in 10.0 mi West 8.1 mph - N/A   Overcast
9:51 PM 41.0 °F 35.8 °F 27.0 °F 57% 30.02 in 10.0 mi West 8.1 mph - N/A   Mostly Cloudy
10:51 PM 39.9 °F 36.7 °F 27.0 °F 60% 30.03 in 10.0 mi West 4.6 mph - N/A   Clear
11:51 PM 39.9 °F 36.7 °F 27.0 °F 60% 30.04 in 10.0 mi West 4.6 mph - N/A   Mostly Cloudy